Orbital Elements at Epoch 2459200.5 (2020-Dec-17.0) TDB
Reference: JPL 27 (heliocentric ecliptic J2000)
Element | Value | Uncertainty (1-sigma) | Units |
e | .1424911120218724 | 5.229e-08 | |
a | 2.293303056438566 | 5.6213e-09 | au |
q | 1.966527753723476 | 1.192e-07 | au |
i | 6.112117011994505 | 5.1653e-06 | deg |
node | 208.7463083058327 | 2.7321e-05 | deg |
peri | 149.3555178137503 | 2.94e-05 | deg |
M | 34.7466570935178 | 1.0268e-05 | deg |
tp | 2459078.066256312035 (2020-Aug-16.56625631) | 3.6161e-05 | TDB |
period | 1268.500380023326 3.47 | 4.664e-06 1.277e-08 | d yr |
n | .2837996784781255 | 1.0435e-09 | deg/d |
Q | 2.620078359153656 | 6.4223e-09 | au |
|
| | Orbit Determination Parameters
Additional Information
|